THOR ABLESTAR DEB, 404

Orbit data source: Space-Track

THOR ABLESTAR DEB, 404 is space debris in LEO originally from a launch on Thu, 29 Jun 1961 UTC launched from the Air Force Eastern Test Range (AFETR). Debris objects in space refer to the collection of defunct objects orbiting the Earth. Examples of debris include non-operational satellites, rocket bodies, and fragments generated from explosions, collisions, or faulty payload assembly.

Loading next visibility...
THOR ABLESTAR DEB details
Identifier
404, 1961-015ED
Orbit
LEO
Last TLE update12 hours ago
Origin
Flag of USUSAF SSD (US)
ManufacturerUnknown
MissionSpacecraft
Bus & MotorUnknown
MassUnknown
Launch date (UTC)
1961-06-29 (64 years ago)
Launch vehicleUnknown
Launch site
Air Force Eastern Test Range (AFETR)
Object type
Payload
Rocket body
Debris
Shape & HBRUnknown
Radar Cross SectionMedium (>0.1 m² and <1 m²)

Expand to show TLE details & history

TLE from 12 hours ago
0 THOR ABLESTAR DEB
1   404U 61015ED  25014.67678921  .00000090  00000-0  28258-3 0  9996
2   404  66.4701 111.2159 0550722  89.3633 277.0435 12.91920030976789
Epoch: 2025-01-14T16:14Z
Definitive object data (Epoch: 2025-01-14T16:14:34.587Z)
Latitude-0.00006°
Longitude113.1917°
Altitude1,267.166 km
Speed7.236 km/s
True Right ascension07h 24m 51s
True Declination0° 00' 00"
Sunlit
Object was in full shadow at TLE epoch
Visualization TLE readout
Latitude-47.54542°
Longitude-39.6083°
Altitude1,646.06 km
Speed6.893 km/s
Apparent Right ascension19h 19m 25s
Apparent Declination-48° 10' 32"
Sunlit
Object is in daylight
Visualization observer readout
Local Sidereal Time05:11:34
Azimuth239.429° WSW
Elevation-65.796°
Doppler factor1
Orbital elements
Apogee altitude1,714.847 km
Perigee altitude869.979 km
Semi-major axis7,670.55 km
Eccentricity0.0550722
Inclination66.4701°
RAAN111.2159°
Arg. of periapsis89.3633°
True anomaly270.73977°
Mean anomaly277.0435°
Eccentric anomaly273.89539°
Mean motion3.23075 °/min
BSTAR0.00028258
Orbital period111.43 mins
Loading maneuver chart data...

THOR ABLESTAR DEB Visibility forecast

Observer location: undefined°, undefined

Span
Click to sort rows by Start time (UTC) header in descending order
Start Az.
Max El. time (UTC)
Max El. Az.
Max El.
End time (UTC)
End Az.
11 mins2025-01-15 07:12:30.854Z179.131° S2025-01-15 07:18:30.854Z108.109° ESE33.849°2025-01-15 07:23:30.854Z45.522° ENE
9 mins2025-01-15 09:08:30.854Z253.362° W2025-01-15 09:12:30.854Z300.014° NW27.517°2025-01-15 09:17:30.854Z7.71° NNE
5 mins2025-01-15 15:04:30.854Z16.334° NNE2025-01-15 15:06:30.854Z38.415° NE14.421°2025-01-15 15:09:30.854Z69.556° E
11 mins2025-01-15 16:57:30.854Z333.667° NNW2025-01-15 17:02:30.854Z103.663° ESE44.303°2025-01-15 17:08:30.854Z147.913° SSE
5 mins2025-01-15 18:54:30.854Z272.069° WNW2025-01-15 18:56:30.854Z251.492° W14.398°2025-01-15 18:59:30.854Z224.585° SW
|